Station MNMM4 - 9087088 - Menominee, MI Image indicating link to RSS feed of recent meteorological observations for station MNMM4


Conditions at MNMM4 as of
(12:18 pm CDT)
1718 GMT on 04/20/2024:
     

Click on the graph icon in the table below to see a time series plot of the last five days of that observation.

5-day plot - Wind Direction Wind Direction (WDIR): W ( 280 deg true )
5-day plot - Wind Speed Wind Speed (WSPD): 8.0 kts
5-day plot - Wind Gust Wind Gust (GST): 14.0 kts
5-day plot - Atmospheric Pressure Atmospheric Pressure (PRES):30.07 in
5-day plot - Air Temperature Air Temperature (ATMP): 38.1 °F
5-day plot - Water Temperature Water Temperature (WTMP): 50.4 °F
5-day plot - Dew Point Dew Point (DEWP): 21.9 °F
5-day plot - Wind Chill Wind Chill (CHILL): 31.6 °F
5-day plot - Wind Speed at 10 Meters Wind Speed at 10 meters (WSPD10M): 7.8 kts
5-day plot - Wind Speed at 20 Meters Wind Speed at 20 meters (WSPD20M): 7.8 kts
5-day plot -  Wind Speed, Wind Gust and Atmospheric Pressure Combined plot of Wind Speed, Gust, and Air Pressure
NOS Water Level Observation Network Water Level
Previous observations
TIME
(CDT)
5-day plot - Wind Direction
WDIR
 
5-day plot - Wind Speed
WSPD
kts
5-day plot - Wind Gust
GST
kts
5-day plot - Wave Height
WVHT
ft
5-day plot - Dominant Wave Period
DPD
sec
5-day plot - Average Wave Period
APD
sec
5-day plot - Mean Wave Direction
MWD
 
5-day plot - Atmospheric Pressure
PRES
in
5-day plot - Pressure Tendency
PTDY
in
5-day plot - Air Temperature
ATMP
°F
5-day plot - Water Temperature
WTMP
°F
5-day plot - Dew Point
DEWP
°F
5-day plot - Salinity
SAL
psu
5-day plot - Visibility
VIS
nmi
5-day plot - Tide (above MLLW)
TIDE
ft
2024-04-20 12:12 pm W 8.9 13.0----30.07- 38.1 50.4 21.9---
2024-04-20 12:06 pmWNW 12.0 15.0----30.07- 37.4 50.4 21.6---
2024-04-20 12:00 pm NW 12.0 15.0----30.07+0.03 37.0 50.4 21.6---
2024-04-20 11:54 amWNW 11.1 15.9----30.08- 37.0 50.4 21.4---
2024-04-20 11:48 am W 12.0 15.9----30.07- 36.9 50.4 22.1---
2024-04-20 11:42 amWNW 8.9 17.1----30.07- 37.6 50.4 22.5---
2024-04-20 11:36 am W 11.1 15.0----30.07- 37.2 50.4 22.5---
2024-04-20 11:30 am W 8.0 13.0----30.07- 37.8 50.4 22.3---
2024-04-20 11:24 am W 8.9 13.0----30.07- 37.6 50.4 22.5---
2024-04-20 11:18 amWNW 8.9 14.0----30.07- 37.4 50.4 21.6---
2024-04-20 11:12 amWNW 9.9 15.0----30.07- 37.8 50.4 22.1---
2024-04-20 11:06 am W 12.0 15.9----30.07- 37.4 50.4 22.1---
2024-04-20 11:00 am W 11.1 17.1----30.07+0.04 37.8 50.4 23.2---
2024-04-20 10:54 am W 11.1 17.1----30.06- 37.4 50.4 22.6---
2024-04-20 10:48 am W 9.9 15.9----30.06- 37.4 50.4 21.7---
2024-04-20 10:42 amWNW 11.1 15.0----30.06- 37.2 50.4 21.2---
2024-04-20 10:36 am W 8.9 14.0----30.06- 37.6 50.4 23.0---
2024-04-20 10:30 am W 11.1 15.0----30.06- 37.4 50.4 21.4---
2024-04-20 10:24 am W 9.9 15.0----30.06- 37.4 50.4 21.4---
2024-04-20 10:18 amWNW 11.1 17.1----30.06- 37.2 50.4 20.7---
2024-04-20 10:12 am W 9.9 19.0----30.06- 37.6 50.4 21.6---
2024-04-20 10:06 am NW 12.0 18.1----30.06- 37.0 50.4 22.5---
2024-04-20 10:00 am W 9.9 14.0----30.05+0.04 37.9 50.4 22.5---
2024-04-20 09:54 amWNW 8.9 14.0----30.05- 37.0 50.4 20.5---
2024-04-20 09:48 am W 9.9 13.0----30.05- 37.0 50.4 22.5---
2024-04-20 09:42 am W 7.0 15.0----30.05- 36.9 50.4 21.2---
2024-04-20 09:36 am W 8.0 14.0----30.05- 36.5 50.4 21.0---
2024-04-20 09:30 am W 7.0 14.0----30.05- 36.9 50.4 22.3---
2024-04-20 09:24 amWNW 9.9 17.1----30.05- 36.3 50.4 21.0---
2024-04-20 09:18 amWNW 11.1 15.9----30.04- 36.1 50.4 20.7---
2024-04-20 09:12 am W 8.0 14.0----30.04- 36.7 50.4 22.3---
2024-04-20 09:06 amWNW 12.0 18.1----30.04- 36.1 50.4 20.8---
2024-04-20 09:00 am W 8.0 15.9----30.04+0.05 36.5 50.4 22.1---
2024-04-20 08:54 amWNW 12.0 15.0----30.04- 36.1 50.4 20.8---
2024-04-20 08:48 am W 8.0 15.0----30.04-- 50.4----
2024-04-20 08:42 am W 8.9 15.9----30.04-- 50.4----
2024-04-20 08:36 amWNW 8.9 18.1----30.04-- 50.4----
2024-04-20 08:30 am W 11.1 17.1----30.03- 36.1 50.4 21.7---
2024-04-20 08:24 am W 9.9 14.0----30.03- 36.3 50.4 22.8---
2024-04-20 08:18 am W 8.0 17.1----30.03- 36.5 50.4 23.7---
2024-04-20 08:12 am W 7.0 12.0----30.03- 36.1 50.4 23.9---
2024-04-20 08:06 am W 11.1 14.0----30.03- 35.8 50.4 23.9---
2024-04-20 08:00 am W 9.9 13.0----30.03+0.05 36.0 50.4 24.4---
2024-04-20 07:54 am W 8.0 14.0----30.03- 36.0 50.4 25.2---
2024-04-20 07:48 am W 8.9 13.0----30.03- 35.6 50.4 24.6---
2024-04-20 07:42 am W 6.0 12.0----30.02- 35.8 50.4 25.0---
2024-04-20 07:36 am W 8.9 14.0----30.02- 35.4 50.4 24.6---
2024-04-20 07:30 am W 8.0 12.0----30.02- 35.2 50.4 24.4---
2024-04-20 07:24 am W 9.9 13.0----30.02- 35.2 50.4 25.0---
2024-04-20 07:18 am W 8.9 14.0----30.02- 35.2 50.4 24.4---
2024-04-20 07:12 amWSW 8.9 13.0----30.02- 35.4 50.4 24.8---
2024-04-20 07:06 am W 8.0 13.0----30.01- 35.1 50.4 24.4---
2024-04-20 07:00 am W 11.1 14.0----30.01+0.04 35.1 50.4 24.4---
2024-04-20 06:54 am W 8.9 14.0----30.01- 34.9 50.4 25.2---
2024-04-20 06:48 am W 9.9 13.0----30.01- 34.7 50.4 24.8---
2024-04-20 06:42 am W 7.0 11.1----30.01- 34.9 50.4 25.3---
2024-04-20 06:36 amWSW 8.9 11.1----30.00- 35.1 50.4 25.7---
2024-04-20 06:30 amWSW 9.9 13.0----30.00- 34.9 50.4 25.3---
2024-04-20 06:24 amWSW 7.0 11.1----30.00- 34.9 50.4 25.5---
2024-04-20 06:18 am W 7.0 14.0----30.00- 34.9 50.5 25.3---
2024-04-20 06:12 am W 9.9 14.0----30.00- 34.9 50.5 25.0---
2024-04-20 06:06 am W 9.9 15.9----29.99- 34.9 50.5 24.6---
2024-04-20 06:00 am W 9.9 15.0----29.99+0.02 35.1 50.5 24.8---
2024-04-20 05:54 amWSW 8.0 14.0----29.99- 35.2 50.5 25.2---
2024-04-20 05:48 am W 11.1 15.0----29.99- 35.2 50.5 24.6---
2024-04-20 05:42 am W 9.9 15.9----29.98- 35.2 50.5 24.4---
2024-04-20 05:36 am W 8.9 14.0----29.98- 35.6 50.5 25.0---
2024-04-20 05:30 amWSW 11.1 14.0----29.98-- 50.5----
2024-04-20 05:24 amWSW 9.9 15.9----29.98-- 50.5----
2024-04-20 05:18 am W 8.9 14.0----29.98- 35.6 50.5 24.6---
2024-04-20 05:12 amWSW 9.9 15.0----29.98- 35.8 50.5 25.2---
2024-04-20 05:06 am W 8.9 14.0----29.98- 35.8 50.5 25.2---
2024-04-20 05:00 amWSW 9.9 14.0----29.98+0.01- 50.5----
2024-04-20 04:54 am W 8.9 14.0----29.98-- 50.5----
2024-04-20 04:48 am W 11.1 15.9----29.98- 35.6 50.5 23.9---
2024-04-20 04:42 amWSW 11.1 15.9----29.98- 35.8 50.5 24.6---
2024-04-20 04:36 am W 11.1 18.1----29.98- 35.8 50.5 24.6---
2024-04-20 04:30 am W 8.9 15.9----29.98- 35.8 50.5 24.8---
2024-04-20 04:24 amWSW 12.0 15.9----29.98- 36.0 50.5 24.8---
2024-04-20 04:18 amWSW 12.0 18.1----29.98- 36.0 50.5 25.0---
2024-04-20 04:12 am W 9.9 15.0----29.98- 36.0 50.5 24.8---
2024-04-20 04:06 amWSW 9.9 15.9----29.98- 36.1 50.5 25.3---
2024-04-20 04:00 am W 11.1 14.0----29.98+0.00 35.8 50.5 24.3---
2024-04-20 03:54 amWSW 9.9 15.9----29.98- 36.1 50.5 25.0---
2024-04-20 03:48 amWSW 8.9 13.0----29.98- 36.1 50.5 24.8---
2024-04-20 03:42 amWSW 11.1 14.0----29.98- 36.1 50.5 25.2---
2024-04-20 03:36 amWSW 11.1 17.1----29.98- 36.3 50.5 25.5---
2024-04-20 03:30 amWSW 12.0 15.0----29.97-- 50.5----
2024-04-20 03:24 amWSW 9.9 17.1----29.98-- 50.5----
2024-04-20 03:18 am W 9.9 14.0----29.97- 36.3 50.5 25.3---
2024-04-20 03:12 amWSW 14.0 18.1----29.97- 36.3 50.5 25.5---
2024-04-20 03:06 amWSW 14.0 17.1----29.97- 36.1 50.5 24.4---
2024-04-20 03:00 am-------29.97+0.00- 50.5----
2024-04-20 02:54 am-------29.97-- 50.5----
2024-04-20 02:48 amWSW 15.0 18.1----29.97- 36.1 50.5 24.3---
2024-04-20 02:42 amWSW 12.0 20.0----29.97- 36.3 50.5 25.0---
2024-04-20 02:36 amWSW 8.9 15.0----29.97- 36.3 50.5 25.2---
2024-04-20 02:30 amWSW 14.0 18.1----29.97- 36.5 50.5 25.5---
2024-04-20 02:24 amWSW 12.0 17.1----29.97- 36.3 50.5 25.0---
2024-04-20 02:18 amWSW 12.0 18.1----29.97- 36.1 50.5 24.4---
2024-04-20 02:12 amWSW 11.1 19.0----29.97- 36.3 50.5 25.0---
2024-04-20 02:06 amWSW 9.9 14.0----29.97- 36.5 50.5 25.7---
2024-04-20 02:00 amWSW 12.0 17.1----29.97+0.00 36.7 50.5 25.7---
2024-04-20 01:54 amWSW 12.0 15.9----29.97- 36.5 50.5 25.7---
2024-04-20 01:48 amWSW 13.0 19.0----29.97- 36.7 50.5 25.9---
2024-04-20 01:42 amWSW 13.0 18.1----29.97- 36.5 50.5 25.3---
2024-04-20 01:36 amWSW 9.9 15.9----29.97- 36.5 50.5 26.2---
2024-04-20 01:30 amWSW 12.0 15.0----29.97- 36.3 50.5 25.7---
2024-04-20 01:24 amWSW 9.9 17.1----29.97- 36.5 50.7 25.9---
2024-04-20 01:18 amWSW 9.9 18.1----29.98- 36.7 50.7 26.8---
2024-04-20 01:12 amWSW 15.0 18.1----29.97- 36.3 50.7 25.7---
2024-04-20 01:06 amWSW 12.0 15.9----29.98- 36.3 50.7 25.2---
2024-04-20 01:00 amWSW 8.9 15.9----29.98+0.01 36.7 50.5 26.2---
2024-04-20 12:54 amWSW 12.0 15.9----29.98- 36.3 50.7 25.3---
2024-04-20 12:48 amWSW 11.1 15.0----29.98- 36.9 50.7 26.4---
2024-04-20 12:42 amWSW 9.9 15.9----29.98- 36.7 50.5 26.2---
2024-04-20 12:36 amWSW 12.0 15.9----29.98- 36.5 50.5 25.3---
2024-04-20 12:30 amWSW 12.0 15.0----29.98- 36.5 50.5 25.2---
2024-04-20 12:24 amWSW 13.0 17.1----29.98- 36.7 50.5 25.7---
2024-04-20 12:18 amWSW 14.0 18.1----29.98- 36.3 50.7 24.4---
2024-04-20 12:12 amWSW 12.0 17.1----29.98- 36.5 50.7 24.8---
2024-04-20 12:06 amWSW 13.0 17.1----29.98- 36.5 50.5 24.4---
2024-04-20 12:00 amWSW 15.0 18.1----29.97+0.02 36.3 50.5 23.9---
2024-04-19 11:54 pmWSW 9.9 15.9----29.97- 36.9 50.5 24.4---
2024-04-19 11:48 pm W 8.9 14.0----29.97- 36.9 50.7 23.5---
2024-04-19 11:42 pm W 8.9 14.0----29.97- 37.0 50.5 23.4---
2024-04-19 11:36 pmWSW 12.0 15.9----29.97- 37.2 50.5 23.0---
2024-04-19 11:30 pm W 11.1 14.0----29.97- 37.0 50.5 22.3---
2024-04-19 11:24 pm W 12.0 17.1----29.97- 37.0 50.5 21.9---
2024-04-19 11:18 pmWSW 11.1 17.1----29.97- 37.0 50.5 21.7---
2024-04-19 11:12 pm W 12.0 18.1----29.97- 37.0 50.7 21.6---
2024-04-19 11:06 pm W 9.9 14.0----29.97- 37.2 50.5 22.3---
2024-04-19 11:00 pmWSW 8.9 15.0----29.97+0.04 37.6 50.5 23.5---
2024-04-19 10:54 pm W 8.9 14.0----29.97- 37.4 50.5 22.5---
2024-04-19 10:48 pm W 9.9 15.9----29.97- 37.4 50.5 21.6---
2024-04-19 10:42 pm W 12.0 15.0----29.97- 37.4 50.5 21.0---
2024-04-19 10:36 pm W 9.9 15.9----29.97- 37.8 50.5 22.1---
2024-04-19 10:30 pm W 11.1 17.1----29.97- 37.8 50.7 21.9---
2024-04-19 10:24 pm W 12.0 17.1----29.97- 37.6 50.5 20.8---
2024-04-19 10:18 pm W 8.9 17.1----29.97- 37.8 50.5 22.3---
2024-04-19 10:12 pm W 12.0 17.1----29.97- 37.6 50.5 21.6---
2024-04-19 10:06 pmWSW 14.0 19.0----29.97- 37.8 50.5 21.6---
2024-04-19 10:00 pm W 12.0 18.1----29.97+0.04 37.9 50.7 22.8---
2024-04-19 09:54 pm W 12.0 17.1----29.96- 37.8 50.7 21.4---
2024-04-19 09:48 pmWSW 14.0 18.1----29.96- 38.1 50.7 23.0---
2024-04-19 09:42 pmWSW 9.9 14.0----29.96- 38.3 50.7 22.8---
2024-04-19 09:36 pmWSW 11.1 15.0----29.96- 38.1 50.7 22.1---
2024-04-19 09:30 pm W 12.0 17.1----29.96- 38.3 50.7 22.6---
2024-04-19 09:24 pmWSW 13.0 18.1----29.96- 38.3 50.7 22.5---
2024-04-19 09:18 pmWSW 12.0 17.1----29.96- 38.5 50.7 22.8---
2024-04-19 09:12 pmWSW 9.9 19.0----29.96- 38.7 50.7 23.4---
2024-04-19 09:06 pmWSW 11.1 15.9----29.96- 38.7 50.7 23.5---
2024-04-19 09:00 pmWSW 9.9 14.0----29.96+0.04 38.7 50.7 23.4---
2024-04-19 08:54 pm W 9.9 15.9----29.96- 38.7 50.7 23.0---
2024-04-19 08:48 pmWSW 12.0 18.1----29.95- 38.5 50.7 22.8---
2024-04-19 08:42 pmWSW 12.0 19.0----29.95- 38.7 50.7 22.8---
2024-04-19 08:36 pmWSW 9.9 15.0----29.95- 39.0 50.7 23.7---
2024-04-19 08:30 pmWSW 9.9 17.1----29.95- 39.2 50.7 24.1---
2024-04-19 08:24 pmWSW 14.0 18.1----29.94- 38.8 50.7 21.7---
2024-04-19 08:18 pmWSW 13.0 17.1----29.94- 39.0 50.7 22.6---
2024-04-19 08:12 pmWSW 11.1 14.0----29.94- 39.4 50.7 23.4---
2024-04-19 08:06 pmWSW 11.1 17.1----29.94- 39.4 50.7 23.5---
2024-04-19 08:00 pmWSW 12.0 15.9----29.93+0.04 39.2 50.7 22.6---
2024-04-19 07:54 pmWSW 14.0 18.1----29.93- 39.0 50.7 21.4---
2024-04-19 07:48 pmWSW 11.1 15.9----29.93- 39.6 50.7 23.0---
2024-04-19 07:42 pmWSW 9.9 17.1----29.93- 39.6 50.7 23.4---
2024-04-19 07:36 pmWSW 11.1 20.0----29.93- 39.6 50.7 23.4---
2024-04-19 07:30 pm W 11.1 17.1----29.93- 39.2 50.7 21.4---
2024-04-19 07:24 pm W 14.0 17.1----29.93- 39.4 50.7 21.6---
2024-04-19 07:18 pm W 9.9 19.0----29.93- 39.4 50.7 21.9---
2024-04-19 07:12 pmWSW 13.0 20.0----29.92- 39.7 50.7 22.3---
2024-04-19 07:06 pmWSW 13.0 18.1----29.93- 39.7 50.7 22.1---
2024-04-19 07:00 pmWSW 13.0 17.1----29.92+0.03 39.7 50.7 21.4---
2024-04-19 06:54 pmWSW 12.0 19.0----29.93- 40.3 50.7 24.1---
2024-04-19 06:48 pmWSW 9.9 15.9----29.93- 40.1 50.7 23.7---
2024-04-19 06:42 pm W 11.1 20.0----29.93- 39.9 50.7 22.6---
2024-04-19 06:36 pm W 11.1 15.0----29.93- 39.9 50.7 22.6---
2024-04-19 06:30 pm W 9.9 19.0----29.92- 39.9 50.7 22.8---
2024-04-19 06:24 pmWSW 12.0 20.0----29.92- 40.1 50.7 23.5---
2024-04-19 06:18 pmWSW 13.0 20.0----29.92- 40.3 50.7 23.7---
2024-04-19 06:12 pmWSW 12.0 21.0----29.92- 40.3 50.7 22.6---
2024-04-19 06:06 pmWSW 15.9 20.0----29.92- 40.1 50.7 21.7---
2024-04-19 06:00 pm W 13.0 21.0----29.92+0.02 40.5 50.7 22.5---
2024-04-19 05:54 pm W 12.0 25.1----29.92- 40.5 50.7 22.6---
2024-04-19 05:48 pm W 18.1 28.0----29.92- 40.6 50.7 22.5---
2024-04-19 05:42 pmWSW 20.0 25.1----29.91- 40.8 50.7 22.6---
2024-04-19 05:36 pm W 15.9 22.9----29.91- 40.8 50.7 23.2---
2024-04-19 05:30 pmWSW 19.0 25.1----29.91- 41.0 50.7 23.7---
2024-04-19 05:24 pmWSW 17.1 25.1----29.91- 40.8 50.7 23.4---
2024-04-19 05:18 pm W 14.0 26.0----29.91- 40.8 50.7 22.8---
2024-04-19 05:12 pm W 15.9 22.9----29.91- 40.8 50.7 22.6---
2024-04-19 05:06 pm W 15.0 22.0----29.91- 41.4 50.7 24.1---
2024-04-19 05:00 pmWSW 19.0 25.1----29.90+0.00 41.4 50.7 24.1---
2024-04-19 04:54 pm W 19.0 25.1----29.90- 41.4 50.7 22.8---
2024-04-19 04:48 pmWSW 21.0 26.0----29.90- 41.4 50.7 23.2---
2024-04-19 04:42 pm W 15.9 20.0----29.90- 41.7 50.7 24.1---
2024-04-19 04:36 pm W 15.0 27.0----29.90- 41.5 50.7 23.7---
2024-04-19 04:30 pm W 14.0 27.0----29.90- 41.9 50.7 23.9---
2024-04-19 04:24 pmWSW 19.0 25.1----29.90- 41.7 50.7 23.5---
2024-04-19 04:18 pm W 15.9 21.0----29.90- 41.9 50.7 24.3---
2024-04-19 04:12 pm W 12.0 24.1----29.90- 41.9 50.7 25.5---
2024-04-19 04:06 pm W 14.0 19.0----29.90- 41.9 50.7 24.8---
2024-04-19 04:00 pm W 15.0 22.0----29.90+0.00 42.1 50.7 24.3---
2024-04-19 03:54 pm W 13.0 22.0----29.90- 42.3 50.7 25.7---
2024-04-19 03:48 pmWSW 15.9 27.0----29.90- 41.7 50.7 25.9---
2024-04-19 03:42 pmWSW 19.0 25.1----29.90- 41.9 50.7 26.1---
2024-04-19 03:36 pm W 17.1 24.1----29.90- 42.4 50.7 26.4---
2024-04-19 03:30 pm W 12.0 24.1----29.89- 42.3 50.7 26.2---
2024-04-19 03:24 pmWSW 15.0 24.1----29.89- 42.4 50.7 27.0---
2024-04-19 03:18 pm W 9.9 15.9----29.90- 43.0 50.7 27.0---
2024-04-19 03:12 pm W 13.0 21.0----29.90- 42.6 50.7 27.0---
2024-04-19 03:06 pm W 15.0 22.0----29.90- 42.4 50.7 26.2---
2024-04-19 03:00 pm W 12.0 20.0----29.90+0.01 42.6 50.7 25.7---
2024-04-19 02:54 pm W 9.9 17.1----29.89- 43.3 50.7 26.2---
2024-04-19 02:48 pm W 9.9 15.9----29.89- 43.7 50.7 25.2---
2024-04-19 02:42 pm W 17.1 22.9----29.89- 43.2 50.7 23.5---
2024-04-19 02:36 pm W 14.0 28.9----29.89- 43.9 50.7 24.6---
2024-04-19 02:30 pm W 12.0 18.1----29.89- 43.5 50.7 24.4---
2024-04-19 02:24 pm W 15.0 22.0----29.89- 43.3 50.7 24.3---
2024-04-19 02:18 pm W 15.0 22.0----29.89- 43.3 50.7 23.2---
2024-04-19 02:12 pm W 13.0 19.0----29.89- 43.7 50.7 23.4---
2024-04-19 02:06 pm W 12.0 17.1----29.89- 43.5 50.7 23.4---
2024-04-19 02:00 pm W 13.0 21.0----29.90+0.00 43.3 50.7 23.5---
2024-04-19 01:54 pm W 14.0 20.0----29.90- 43.7 50.7 23.5---
2024-04-19 01:48 pm W 13.0 19.0----29.89- 43.3 50.7 22.5---
2024-04-19 01:42 pm W 13.0 21.0----29.89- 43.2 50.7 22.3---
2024-04-19 01:36 pm W 15.0 19.0----29.89- 42.8 50.7 21.4---
2024-04-19 01:30 pmWSW 14.0 20.0----29.89- 43.7 50.7 23.4---
2024-04-19 01:24 pmWSW 14.0 25.1----29.89- 43.3 50.7 23.0---
2024-04-19 01:18 pmWSW 15.0 24.1----29.89- 43.3 50.7 22.6---
2024-04-19 01:12 pmWSW 19.0 26.0----29.89- 43.2 50.7 21.4---
2024-04-19 01:06 pm W 17.1 25.1----29.89- 43.0 50.7 20.8---
2024-04-19 01:00 pm W 17.1 26.0----29.89-0.01 43.3 50.7 20.5---
2024-04-19 12:54 pm W 17.1 28.9----29.89- 43.3 50.7 19.9---
2024-04-19 12:48 pm W 19.0 28.0----29.89- 43.2 50.7 20.1---
2024-04-19 12:42 pm W 15.0 22.0----29.88- 44.1 50.7 21.0---
2024-04-19 12:36 pm W 19.0 25.1----29.89- 43.3 50.7 20.3---
2024-04-19 12:30 pm W 15.0 24.1----29.89- 43.7 50.7 21.9---
2024-04-19 12:24 pmWSW 17.1 31.1----29.89- 44.1 50.7 24.1---
2024-04-19 12:18 pm W 20.0 28.0----29.89- 42.8 50.7 21.4---
2024-04-19 12:12 pm W 18.1 25.1----29.89- 43.2 50.7 20.5---
2024-04-19 12:06 pm W 14.0 21.0----29.89- 43.9 50.7 21.7---
2024-04-19 12:00 pm W 18.1 27.0----29.89-0.01 43.3 50.7 20.8---
2024-04-19 11:54 amWSW 22.9 31.1----29.89- 43.5 50.7 22.1---